Showing default

COSMOS 2524, 43032

Orbit data source: Space-Track

COSMOS 2524, 43032 is a payload satellite owned by VVKO VKS (CIS) in LEO that was launched on Sat, 02 Dec 2017 UTC via a SOYUZ-2-1B launch vehicle from the Plesetsk Missile And Space Complex (PKMTR). Payload-class satellites include a variety of spacecraft equipped with specific instruments for various scientific and technological missions. These include communications satellites like Starlink; space stations such as the ISS; scientific satellites like the Hubble; Earth observation satellites from companies like Planet Labs, Umbra, and HawkEye 360; GPS; miniature CubeSats for education and research; and military/defense satellites.

Loading next visibility...
Identifier
43032, 2017-076A
Orbit
LEO
Last TLE update
4 hours ago
Origin
Manufacturer
TSSKBP/ARSLO
Mission
Operational Defense Sigint
Bus & Motor
YANTAR'-LOTOS, 11D428
Mass
6,575 kg wet, ~6,500 kg dry
Launch date (UTC)
2017-12-02 (7 years ago)
Launch vehicle
SOYUZ-2-1B
Launch site
Plesetsk Missile And Space Complex (PKMTR)
Object type
Payload
Rocket body
Debris
Shape & HBR
Cyl + 2 Pan, 6.3 m
Radar Cross Section
16.222 m², Large (>1 m²)

Expand to show TLE details & history

TLE from 4 hours ago
0 COSMOS 2524
1 43032U 17076A   25129.21628300  .00000015  00000-0  64288-4 0  9992
2 43032  67.1440  95.6110 0001953 269.3778  90.7083 13.97362902379219
Epoch: 2025-05-09T05:11Z
Definitive object data (Epoch: 2025-05-09T05:11:26.851Z)
Latitude
-0.00002°
Longitude
150.4735°
Altitude
905.068 km
Speed
7.4 km/s
True Right ascension
06h 22m 26s
True Declination
0° 00' 00"
Sunlit
Object was in daylight at TLE epoch
Visualization TLE readout
Latitude
41.91185°
Longitude
172.21226°
Altitude
909.275 km
Speed
7.401 km/s
Apparent Right ascension
06h 29m 17s
Apparent Declination
4° 35' 54"
Sunlit
Object is in daylight
Visualization observer readout
Local Sidereal Time
17:00:03
Azimuth
329.917° NNW
Elevation
-40.984°
Doppler factor
1
Orbital elements
Apogee altitude
902.712 km
Perigee altitude
899.869 km
Semi-major axis
7,279.428 km
Eccentricity
0.0001953
Inclination
67.144°
RAAN
95.611°
Arg. of periapsis
269.3778°
True anomaly
90.73068°
Mean anomaly
90.7083°
Eccentric anomaly
90.71949°
Mean motion
3.4946 °/min
BSTAR
0.000064288
Orbital period
103.02 mins
Loading maneuver chart data...
Loading SW <> Apogee altitude chart data...
Loading historical data...
Loading historical data...
Loading historical data...
Loading historical data...
Loading historical data...
Loading historical data...
Loading historical data...
Other satellites on launch #76 in the year 2017 (2017-12-02 UTC)

COSMOS 2524 Visibility forecast

Observer location: undefined°, undefined°

Span
Click to sort rows by Start time (UTC) header in descending order
Start Az.
Max El. time (UTC)
Max El. Az.
Max El.
End time (UTC)
End Az.
11 mins2025-05-09 09:11:49.190Z321.793° NNW2025-05-09 09:16:49.190Z259.209° W39.296°2025-05-09 09:22:49.190Z170.887° S
9 mins2025-05-09 22:29:49.190Z164.035° S2025-05-09 22:33:49.190Z103.879° ESE29.925°2025-05-09 22:38:49.190Z46.058° ENE
9 mins2025-05-10 00:15:49.190Z251.162° W2025-05-10 00:19:49.190Z316.949° NNW31.004°2025-05-10 00:24:49.190Z13.97° NNE
8 mins2025-05-10 07:30:49.190Z358.441° N2025-05-10 07:34:49.190Z58.548° ENE28.592°2025-05-10 07:38:49.190Z109.63° ESE
|